Location: Axtheid
(49.6213°N, 11.8205°E)
Time: 21:12:21
(UTC+00:00)

Aureole 3 - Pass Details

Date: 24 January 2021
Orbit: 381 x 1231 km, 82.5° (Epoch: 02 March)

Event Time Altitude Azimuth Distance (km) Brightness Sun altitude
Rises 17:10:40 0° 351° (N) 2,567 6.7 -12.1°
Reaches altitude 10° 17:12:55 10° 353° (N) 1,588 5.6 -12.5°
Maximum altitude 17:16:16 75° 79° (ENE) 428 2.6 -13.0°
Drops below altitude 10° 17:19:15 10° 166° (SSE) 1,413 5.4 -13.5°
Sets 17:21:09 0° 168° (SSE) 2,248 6.5 -13.8°
